CAPE
6 0 0 3 10 6 4 3 4 2 3 1 0 1 2 1 1 1 1 1 2 0 0 1 1 1 0 0 0 0 0 0 0 0 0 0 0 0 0 0 0 0 0 0 0 0 0
0 0 0 5 7 2 2 0 1 3 1 0 0 0 3 1 1 1 1 1 0 0 2 0 0 1 0 0 0 0 0 0 0 0 0 0 0 0 0 0 0 0 0 0 0 0 0
0 0 1 4 4 1 1 0 2 0 0 0 0 0 0 1 1 1 0 0 0 1 1 0 1 0 0 0 0 0 0 0 0 0 0 0 0 0 0 0 0 0 0 0 0 0 0
0 0 0 2 3 1 0 0 3 0 0 0 0 0 0 0 0 0 0 0 0 0 2 1 0 0 0 0 0 0 0 0 0 0 0 0 0 0 0 0 0 0 0 0 0 0 0
0 0 0 2 2 1 1 0 1 0 0 0 0 0 0 0 0 0 0 0 0 0 0 0 1 0 0 0 0 0 0 0 0 0 0 0 0 0 0 0 0 0 0 0 0 0 0
0 0 0 1 1 1 1 1 1 0 0 0 0 0 0 0 0 0 0 0 0 0 0 0 0 0 0 0 0 0 0 0 0 0 0 0 0 0 0 0 0 0 0 0 0 0 0
0 0 0 0 1 0 1 0 0 0 0 0 0 0 0 0 0 0 0 0 0 0 0 0 0 0 0 0 0 0 0 0 0 0 0 0 0 0 0 0 0 0 0 0 0 0 0
0 0 0 0 1 0 0 0 0 0 0 0 0 0 0 0 0 0 0 2 8 0 0 0 0 0 0 0 0 0 0 0 0 0 0 0 0 0 0 0 0 0 0 0 0 0 0
0 0 0 0 0 0 0 0 0 0 0 0 0 0 0 0 0 4 190 115 68 0 0 0 0 0 0 0 0 0 0 0 0 0 0 0 0 0 0 0 0 0 0 0 0 0 0
0 0 0 0 0 0 0 0 0 0 0 0 0 0 0 0 0 0 0 0 48 0 0 0 0 0 0 0 0 0 0 0 0 0 0 0 0 0 0 0 0 0 0 0 0 0 0
0 0 0 0 0 0 0 0 0 0 0 0 0 0 0 0 60 0 0 1 100 16 0 0 0 0 0 0 0 0 0 0 0 0 0 0 0 0 0 0 0 0 0 0 0 0 0
0 0 0 0 0 0 0 0 0 0 0 0 0 0 0 0 126 1 3 1 136 75 0 0 0 0 0 0 0 0 0 0 0 0 0 0 0 0 0 0 0 0 0 0 0 0 0
0 0 0 0 0 0 0 0 0 0 0 0 0 0 0 0 16 2 13 91 0 0 0 0 0 0 0 0 0 0 0 0 0 0 0 0 0 0 0 0 0 0 0 0 1 0 0
0 0 0 0 0 0 0 0 0 0 0 0 0 0 0 5 0 4 76 104 0 0 0 0 0 0 0 0 0 0 0 0 0 0 0 0 0 0 0 0 0 0 0 0 0 0 0
0 0 0 0 0 0 0 0 0 0 0 0 0 0 1 0 0 0 2 74 0 0 0 0 0 0 0 0 0 0 0 0 0 0 0 0 0 0 0 0 0 0 0 0 0 0 0
0 0 0 0 0 0 0 0 0 0 0 0 0 0 0 0 0 3 98 0 0 0 0 0 0 0 0 0 0 0 0 0 0 0 0 0 0 0 0 0 0 0 0 0 0 0 0
0 0 0 0 0 0 0 0 0 0 0 0 0 0 0 0 0 15 2 0 0 0 0 0 0 0 0 0 0 0 0 0 0 0 0 0 0 0 0 0 0 0 0 0 0 0 0
0 0 0 0 0 0 0 0 0 0 0 0 0 0 0 0 0 0 0 0 0 0 0 0 0 0 0 0 0 0 0 0 0 0 0 0 0 0 0 0 0 0 0 0 0 0 3
0 0 0 0 0 0 0 0 0 0 0 0 0 0 0 0 63 0 0 0 0 0 0 0 0 0 0 0 0 0 0 0 0 0 0 0 0 0 0 0 0 0 0 0 0 0 1
0 0 0 0 0 0 0 0 0 0 0 0 1 408 0 0 0 0 0 0 0 0 0 0 0 0 0 0 0 0 0 0 0 0 0 0 0 0 0 0 0 0 0 0 0 9 2
0 0 0 0 0 0 0 0 0 0 0 0 0 3 0 3 0 0 0 0 0 0 0 0 0 0 0 0 0 0 0 0 0 0 0 0 0 0 0 0 0 0 0 0 0 0 16
0 0 0 0 0 0 0 0 0 0 0 0 1 0 0 0 0 0 0 0 0 0 0 0 0 0 0 0 0 0 0 0 0 0 0 0 0 0 0 0 0 0 0 0 0 0 1
0 0 0 0 0 0 0 0 0 0 0 1 0 0 0 0 0 0 0 0 0 0 0 0 0 0 0 0 0 0 0 0 0 0 0 0 0 0 0 0 0 0 0 0 0 0 0
0 0 0 0 0 0 0 0 0 0 0 0 0 0 149 0 0 0 0 0 0 0 0 0 0 0 0 0 0 0 0 0 0 0 0 1 0 1 6 0 3 0 0 0 0 0 0
0 0 0 0 0 0 0 0 0 0 0 0 0 0 1 0 0 0 0 0 0 0 0 0 0 0 0 0 0 0 0 0 0 0 0 0 1 2 2 4 0 0 0 0 0 0 0
0 0 0 0 0 0 0 0 0 0 0 0 0 0 0 2 0 0 0 0 0 0 0 0 0 0 0 0 0 0 0 0 0 0 0 0 0 28 14 27 18 0 0 0 0 7 0
0 0 0 0 0 0 0 0 0 0 0 0 0 0 0 19 0 0 0 0 0 0 0 0 0 0 0 1 2 5 0 0 0 0 1 0 3 6 9 29 14 1 0 0 23 48 4
0 0 0 0 0 0 0 0 0 0 0 0 0 0 0 2 0 0 0 0 0 0 0 0 0 0 1 4 0 4 3 0 0 0 0 4 18 26 7 2 1 0 0 11 37 0 0
0 0 0 0 0 0 0 0 0 0 0 0 24 0 0 3 0 0 0 0 0 0 0 0 0 0 0 1 0 1 0 0 2 10 0 1 0 15 10 23 16 22 3 0 0 0 16
CIN
0 0 0 0 0 0 0 0 0 0 0 0 0 0 0 0 0 0 0 0 0 0 0 0 0 0 0 0 0 0 0 0 0 0 0 0 0 0 0 0 0 0 0 0 0 0 0
0 0 0 0 0 0 0 0 0 0 0 0 0 0 0 0 0 0 0 0 0 0 0 0 0 0 0 0 0 0 0 0 0 0 0 0 0 0 0 0 0 0 0 0 0 0 0
0 0 0 0 0 0 0 0 0 0 0 0 0 0 0 0 0 0 0 0 0 0 0 0 0 0 0 0 0 0 0 0 0 0 0 0 0 0 0 0 0 0 0 0 0 0 0
0 0 0 0 0 0 0 0 0 0 0 0 0 0 0 0 0 0 0 0 0 0 0 0 0 0 0 0 0 0 0 0 0 0 0 0 0 0 0 0 0 0 0 0 0 0 0
0 0 0 0 0 0 0 0 0 0 0 0 0 0 0 0 0 0 0 0 0 0 0 0 -45 0 0 0 0 0 0 0 0 0 0 0 0 0 0 0 0 0 0 0 0 0 0
0 0 0 0 0 0 0 0 0 0 0 0 0 0 0 0 0 0 0 0 0 0 0 0 0 0 0 0 0 0 0 0 0 0 0 0 0 0 0 0 0 0 0 0 0 0 0
0 0 0 0 0 0 0 0 0 0 0 0 0 0 0 0 0 0 0 0 0 0 0 0 0 0 0 0 0 0 0 0 0 0 0 0 0 0 0 0 0 0 0 0 0 0 0
0 0 0 0 0 0 0 0 0 0 0 0 0 0 0 0 0 0 0 -69 -82 0 0 0 0 0 0 0 0 0 0 0 0 0 0 0 0 0 0 0 0 0 0 0 0 0 0
0 0 0 0 0 0 0 0 0 0 0 0 0 0 0 0 0 -102 -193 -273 -436 0 0 0 0 0 0 0 0 0 0 0 0 0 0 0 0 0 0 0 0 0 0 0 0 0 0
0 0 0 0 0 0 0 0 0 0 0 0 0 0 0 0 -16 0 -17 0 -491 0 0 0 0 0 0 0 0 0 0 0 0 0 0 0 0 0 0 0 0 0 0 0 0 0 0
0 0 0 0 0 0 0 0 0 0 0 0 0 0 0 0 -296 0 0 -37 -448 -195 0 0 0 0 0 0 0 0 0 0 0 0 0 0 0 0 0 0 0 0 0 0 0 0 0
0 0 0 0 0 0 0 0 0 0 0 0 0 0 0 0 -307 -192 -513 -429 -308 -165 0 0 0 0 0 0 0 0 0 0 0 0 0 0 0 0 0 0 0 0 0 0 0 0 0
0 0 0 0 0 0 0 0 0 0 0 0 0 0 0 0 -218 -302 -225 -259 0 0 0 0 0 0 0 0 0 0 0 0 0 0 0 0 0 0 0 0 0 0 0 0 -42 0 0
0 0 0 0 0 0 0 0 0 0 0 0 0 0 0 -60 0 -282 -303 -147 0 0 0 0 0 0 0 0 0 0 0 0 0 0 0 0 0 0 0 0 0 0 0 0 0 0 0
0 0 0 0 0 0 0 0 0 0 0 0 0 0 -481 0 0 0 -22 -144 0 0 0 0 0 0 0 0 0 0 0 0 0 0 0 0 0 0 0 0 0 0 0 0 0 0 0
0 0 0 0 0 0 0 0 0 0 0 0 0 0 0 0 0 -229 -148 0 0 0 0 0 0 0 0 0 0 0 0 0 0 0 0 0 0 0 0 0 0 0 0 0 0 0 0
0 0 0 0 0 0 0 0 0 0 0 0 0 0 0 0 0 -222 -44 0 0 0 0 0 0 0 0 0 0 0 0 0 0 0 0 0 0 0 0 0 0 0 0 0 0 0 0
0 0 0 0 0 0 0 0 0 0 0 0 0 0 0 0 0 0 0 0 0 0 0 0 0 0 0 0 0 0 0 0 0 0 0 0 0 0 0 0 0 0 0 0 0 0 0
0 0 0 0 0 0 0 0 0 0 0 0 0 0 0 0 -103 0 0 0 0 0 0 0 0 0 0 0 0 0 0 0 0 0 0 0 0 0 0 0 0 0 0 0 0 0 0
0 0 0 0 0 0 0 0 0 0 0 0 -8 -51 0 0 0 0 0 0 0 0 0 0 0 0 0 0 0 0 0 0 0 0 0 0 0 0 0 0 0 0 0 0 0 0 0
0 0 0 0 0 0 0 0 0 0 0 0 0 -24 0 -39 0 0 0 0 0 0 0 0 0 0 0 0 0 0 0 0 0 0 0 0 0 0 0 0 0 0 0 0 0 0 0
0 0 0 0 0 0 0 0 0 0 0 0 -10 0 0 0 0 0 0 0 0 0 0 0 0 0 0 0 0 0 0 0 0 0 0 0 0 0 0 0 0 0 0 0 0 0 0
0 0 0 0 0 0 0 0 0 0 0 -36 0 0 0 0 0 0 0 0 0 0 0 0 0 0 0 0 0 0 0 0 0 0 0 0 0 0 0 0 0 0 0 0 0 0 0
0 0 0 0 0 0 0 0 0 0 0 0 0 0 -71 0 0 0 0 0 0 0 0 0 0 0 0 0 0 0 0 0 0 0 0 0 0 0 0 0 0 0 0 0 0 0 0
0 0 0 0 0 0 0 0 0 0 0 0 0 0 -14 0 0 0 0 0 0 0 0 0 0 0 0 0 0 0 0 0 0 0 0 0 0 0 0 0 0 0 0 0 0 0 0
0 0 0 0 0 0 0 0 0 0 0 0 0 0 0 -4 0 0 0 0 0 0 0 0 0 0 0 0 0 0 0 0 0 0 0 0 0 0 0 0 0 0 0 0 0 0 0
0 0 0 0 0 0 0 0 0 0 0 0 0 0 0 -133 0 0 0 0 0 0 0 0 0 0 0 0 0 0 0 0 0 0 0 0 0 0 0 0 0 -1 0 0 -1 0 -9
0 0 0 0 0 0 0 0 0 0 0 0 0 0 0 -44 0 0 0 0 0 0 0 0 0 0 0 0 0 0 0 0 0 0 0 0 0 0 0 0 0 0 0 0 0 0 0
0 0 0 0 0 0 0 0 0 0 0 0 -153 0 0 -8 0 0 0 0 0 0 0 0 0 0 0 -1 0 0 0 0 0 0 0 0 0 0 -5 0 -3 -1 0 0 -1 0 0
Wind_Speed
12 12 11 11 11 11 11 10 9 9 8 9 9 10 11 11 11 11 11 11 8 9 9 8 10 8 6 5 6 7 9 4 2 1 5 6 6 4 5 9 12 12 9 8 4 5 3
12 10 10 10 10 10 10 8 8 6 7 7 7 9 9 10 11 11 11 10 9 9 7 8 8 7 7 7 3 5 7 4 6 4 7 4 3 5 6 5 1 5 7 7 3 4 3
11 9 9 9 9 10 9 8 8 5 5 5 6 7 8 10 10 10 10 10 8 7 7 7 5 5 3 6 3 4 4 4 4 6 5 4 3 4 5 9 3 7 10 6 6 3 3
10 9 9 9 8 9 9 8 7 5 3 3 4 6 7 8 9 9 10 8 6 6 7 4 2 5 5 1 2 5 5 2 3 4 5 4 5 7 3 5 5 5 4 6 8 0 2
9 8 9 9 9 10 10 10 9 6 3 1 2 4 5 6 7 7 7 6 7 7 6 3 4 5 6 3 2 5 4 1 4 5 5 4 2 4 5 6 7 2 2 1 7 3 4
8 8 8 9 9 11 11 11 8 7 5 3 2 1 4 6 6 5 5 6 7 7 4 4 3 6 2 5 4 5 2 2 1 2 4 2 3 5 5 4 1 2 3 3 1 6 6
7 7 8 9 10 11 12 11 10 8 6 5 4 3 4 4 4 7 7 4 6 5 7 6 6 5 3 2 2 8 4 2 2 3 3 6 4 7 7 6 3 1 1 2 3 5 7
6 6 8 9 11 11 13 12 11 10 8 6 4 4 3 6 8 8 5 1 5 4 10 6 4 7 3 3 7 14 9 1 1 6 3 4 8 4 4 3 1 1 2 2 2 1 6
4 6 8 9 11 12 12 13 11 10 9 7 5 2 3 8 9 5 2 5 4 3 6 6 3 4 3 8 8 11 9 3 7 8 4 5 6 2 1 6 4 2 2 4 5 4 4
3 4 6 8 10 10 12 12 12 10 9 7 5 2 4 10 4 2 4 3 4 3 3 3 2 5 2 0 5 8 8 3 3 8 7 8 3 2 2 5 7 1 3 8 7 7 4
3 4 5 6 8 9 11 11 11 10 8 7 5 3 7 7 5 2 4 2 2 2 3 1 5 3 6 4 2 12 5 6 6 5 5 4 5 5 6 4 6 5 8 5 4 7 4
2 3 6 8 9 9 11 12 12 10 8 7 6 0 6 4 2 4 2 3 2 3 4 4 2 4 7 11 6 4 6 8 1 7 10 6 2 4 6 3 2 6 3 1 1 2 5
1 3 5 7 8 10 11 12 12 10 7 6 4 7 1 1 4 2 2 3 4 3 1 7 5 5 7 6 7 11 14 12 6 2 3 3 5 3 6 3 4 8 3 3 3 4 2
1 2 5 6 7 9 11 11 11 10 8 5 3 1 4 4 2 2 2 3 4 2 1 3 6 7 5 4 6 6 5 10 13 6 4 3 5 8 9 5 6 6 6 4 3 3 4
2 2 4 5 7 8 10 11 11 11 8 3 3 3 3 4 3 2 4 2 3 4 5 7 8 4 4 4 2 3 9 7 9 10 4 3 4 3 6 5 5 3 5 2 3 2 4
1 3 4 5 7 8 9 11 12 12 7 3 3 3 3 6 2 2 1 2 2 1 2 4 4 2 4 4 2 2 3 4 2 7 5 3 2 2 1 4 8 4 4 2 2 3 4
1 3 4 5 7 8 9 12 13 12 7 1 2 4 3 3 3 1 2 3 4 2 1 2 4 5 5 4 4 3 3 3 3 3 4 4 4 3 3 2 2 4 3 3 1 2 3
2 3 4 5 7 8 10 12 14 14 8 4 2 3 4 2 3 1 4 4 2 4 3 4 5 5 4 3 4 3 4 3 2 3 2 4 2 2 1 2 3 2 1 1 2 3 2
5 2 4 5 6 8 10 12 13 13 10 3 2 3 2 3 4 3 4 4 4 3 3 3 4 2 2 4 4 4 3 3 3 1 3 1 0 2 4 5 4 5 2 2 2 1 9
7 4 4 5 7 9 10 12 13 11 8 1 3 4 3 2 2 9 10 5 6 4 4 6 5 6 7 5 3 6 5 3 1 2 4 2 2 5 5 7 5 6 7 7 9 5 8
7 5 5 5 7 8 10 11 11 11 7 2 2 3 3 4 4 9 5 6 11 5 3 2 4 3 5 5 4 4 3 4 2 3 1 3 4 4 8 11 13 12 14 12 15 15 11
7 6 6 5 6 7 9 12 12 11 8 3 2 4 2 4 5 10 1 7 8 6 2 4 7 7 5 5 2 5 3 3 1 4 1 2 2 4 4 8 10 12 15 15 13 13 14
8 8 4 4 3 7 9 11 11 13 7 2 2 1 1 1 3 3 3 7 8 8 5 3 13 10 8 8 5 7 6 6 3 1 2 2 1 2 5 9 13 7 4 4 3 4 8
9 8 5 1 5 6 8 9 11 12 9 2 2 1 3 3 2 4 7 5 12 3 8 7 4 6 4 10 10 7 9 6 4 4 2 4 3 1 3 5 4 3 5 9 13 13 8
8 8 6 4 4 6 7 9 10 11 7 3 2 0 3 3 2 5 9 10 10 7 8 7 5 5 6 2 2 3 1 2 4 6 4 3 3 2 2 4 15 13 4 2 2 11 4
8 7 6 5 4 5 6 8 9 10 8 3 3 1 3 8 5 5 6 9 7 5 4 4 4 3 2 3 2 2 1 1 3 5 4 5 4 2 3 4 5 3 4 4 4 8 5
8 7 6 5 4 4 4 6 8 9 9 2 3 2 1 4 3 4 4 6 5 4 5 4 5 2 2 3 2 3 3 2 3 2 4 3 2 4 6 6 8 6 5 1 3 4 12
8 7 6 6 5 4 3 5 7 8 8 3 3 3 2 3 4 1 4 5 5 4 5 7 5 2 3 3 3 3 2 3 3 2 3 4 2 4 3 4 7 2 1 2 5 6 2
9 8 7 6 6 5 3 3 6 7 9 4 2 1 2 3 4 2 3 4 4 2 5 5 2 5 5 4 3 3 3 1 1 4 4 5 6 4 8 7 5 7 7 3 1 4 6
Wind_Direction
294 297 306 312 312 305 300 300 291 278 261 249 240 238 241 243 244 248 253 257 267 272 280 307 304 307 274 158 66 3 327 6 305 23 70 101 126 120 93 107 105 114 123 102 114 150 85
295 306 313 316 316 318 317 318 299 285 259 246 231 225 231 234 237 240 246 252 259 269 299 295 287 293 240 108 13 352 330 311 30 43 62 58 104 112 99 96 40 109 118 109 128 143 94
301 314 315 318 318 334 338 333 321 307 271 253 234 226 220 224 229 233 240 248 255 274 276 272 277 268 153 81 358 345 340 357 3 1 78 64 124 233 148 120 103 145 140 130 77 146 96
304 318 326 325 329 345 354 348 341 316 294 250 230 218 215 219 224 233 240 244 251 257 257 226 268 241 93 60 356 21 348 139 49 54 75 83 93 92 28 116 155 171 193 208 67 88 50
307 320 336 331 345 3 0 5 349 344 11 358 224 215 210 217 226 229 237 245 241 231 217 236 220 261 114 127 325 354 350 202 125 100 82 109 87 82 164 192 169 160 121 106 151 55 313
308 329 339 348 354 7 10 14 352 355 4 24 50 203 198 198 202 201 218 223 194 197 191 235 236 174 110 42 355 333 30 10 136 153 145 61 77 114 63 263 134 124 190 184 331 42 333
312 339 345 354 3 5 22 14 3 357 1 21 55 118 135 129 153 175 170 202 196 150 60 29 72 69 97 71 296 44 6 222 162 94 106 39 79 57 46 33 36 52 262 310 55 75 314
317 346 343 359 8 9 18 15 7 359 357 11 22 72 140 164 171 179 247 248 30 40 91 45 62 79 42 327 71 29 353 62 36 101 128 146 77 74 62 56 358 289 289 74 109 44 291
325 354 345 2 12 10 16 16 6 2 354 355 345 42 141 139 151 192 110 68 353 307 97 65 29 24 20 38 44 9 359 72 81 100 106 80 73 112 316 42 348 64 359 18 317 305 213
332 357 357 4 10 8 14 6 7 1 350 338 324 14 145 135 151 137 72 36 12 329 120 55 49 54 338 30 71 19 14 348 88 105 85 76 74 62 82 64 342 229 16 305 273 251 209
336 357 13 12 5 359 10 357 3 358 344 328 330 21 124 185 123 113 83 41 93 244 158 136 72 21 49 65 339 31 14 76 76 89 246 86 74 44 49 25 349 30 318 308 271 234 241
352 6 22 14 7 1 7 352 359 357 345 333 335 145 144 177 87 73 107 139 217 247 132 142 138 117 93 52 53 41 54 61 63 74 74 92 85 28 12 318 311 323 253 184 177 199 227
73 17 38 18 6 5 2 351 352 359 3 353 37 66 81 22 85 94 177 221 211 264 168 134 118 108 87 53 64 58 64 55 38 172 61 133 65 76 358 300 181 347 247 218 208 203 33
123 45 38 26 8 2 358 349 350 6 21 26 77 153 38 54 38 181 222 202 222 94 113 101 121 98 79 20 59 54 75 60 42 12 97 10 143 12 359 12 343 20 358 24 318 327 321
181 59 39 29 15 356 355 349 356 9 25 22 257 83 85 25 3 252 217 203 142 166 127 143 140 132 104 88 75 92 56 48 29 9 33 349 96 100 56 26 309 46 56 24 129 160 252
156 80 23 19 14 354 355 354 1 4 17 344 123 130 77 336 329 226 118 91 105 85 128 185 131 308 131 105 126 101 66 27 70 26 329 59 196 54 114 246 67 25 114 218 35 339 301
65 70 28 14 9 351 0 7 1 359 1 201 110 156 60 337 246 177 148 105 123 69 342 5 115 115 95 114 87 94 88 98 21 60 34 6 296 115 235 343 340 170 155 70 71 303 281
104 69 38 18 3 355 14 13 359 5 348 151 145 147 35 269 140 71 128 111 91 115 91 95 86 88 102 92 87 102 126 55 14 328 21 33 3 264 20 67 326 316 131 88 296 189 220
126 94 57 18 5 6 16 15 4 8 356 150 116 93 79 269 147 120 128 101 66 131 50 104 103 66 113 114 118 119 123 118 18 357 21 65 267 262 183 174 196 249 193 117 80 239 244
141 126 80 31 19 16 11 15 6 4 350 276 160 125 96 78 355 147 144 132 117 62 81 78 105 122 124 101 69 140 141 137 31 56 40 248 238 269 308 335 328 259 265 255 246 246 265
145 130 90 53 21 21 7 9 352 356 346 250 14 89 6 151 151 138 126 147 140 135 86 94 109 163 138 119 107 130 146 161 137 127 102 320 284 293 290 292 290 285 275 266 248 249 264
145 122 95 64 18 26 9 4 348 356 337 87 137 155 115 81 128 133 100 151 152 126 155 124 143 121 124 127 137 170 178 218 198 144 96 24 298 347 288 299 294 292 270 262 258 255 260
147 128 110 85 39 32 14 359 354 356 324 92 116 98 162 347 123 168 140 147 151 135 60 78 132 118 98 104 74 55 63 62 69 190 164 290 176 357 281 316 316 275 253 168 244 201 278
154 145 149 102 57 38 17 360 1 9 10 60 71 119 101 125 208 121 152 135 143 99 127 125 121 106 90 113 107 90 68 70 103 57 339 135 136 69 289 300 271 49 298 286 291 291 283
165 159 152 111 67 37 11 9 6 11 357 77 95 207 117 106 114 121 140 123 109 94 98 121 56 49 141 108 97 28 117 65 78 51 67 258 135 146 262 264 296 291 78 70 270 293 6
168 169 155 133 100 59 19 8 10 7 1 73 73 342 84 122 220 136 129 162 137 122 118 81 82 49 78 76 76 111 225 319 166 147 67 78 98 261 187 256 265 12 50 328 293 261 46
172 173 165 148 125 91 41 11 11 7 0 41 79 357 258 104 139 171 145 160 128 125 114 136 153 114 320 90 101 179 208 330 234 207 194 144 160 231 241 250 272 331 49 255 279 18 339
178 181 182 171 157 126 70 22 11 9 356 332 86 11 337 85 131 218 162 143 140 169 150 135 152 140 85 95 157 191 205 193 215 268 213 243 222 208 205 257 264 84 296 271 329 334 283
178 180 186 185 176 156 121 28 13 11 2 330 113 53 343 67 86 19 38 10 7 147 132 172 20 149 153 109 176 137 186 154 238 248 182 254 208 275 194 242 281 294 294 283 198 220 275